This is the latest recevied weather packets stored in our database for station/object WX9WTF. If no packets are shown the sender has not sent any weather packets the latest 10 day(s).
| Time | Temp. | Humidity | Pressure | Rain* | Wind** | Luminosity | Snow |
|---|---|---|---|---|---|---|---|
| 1777813418 | 13.33° C | 61% | 1016 hPa | 0 mm | - | 203 W/m² | - |
| 1777813115 | 12.78° C | 63% | 1016.1 hPa | 0 mm | - | 187 W/m² | - |
| 1777812814 | 12.78° C | 61% | 1016.3 hPa | 0 mm | - | 176 W/m² | - |
| 1777812510 | 11.67° C | 63% | 1016.2 hPa | 0 mm | - | 162 W/m² | - |
| 1777812208 | 11.67° C | 64% | 1016.1 hPa | 0 mm | - | 67 W/m² | - |
| 1777811906 | 11.67° C | 63% | 1016.2 hPa | 0 mm | - | 80 W/m² | - |
| 1777811604 | 11.11° C | 67% | 1016.2 hPa | 0 mm | - | 93 W/m² | - |
| 1777811299 | 11.11° C | 64% | 1016.1 hPa | 0 mm | - | 78 W/m² | - |
| 1777810997 | 10.56° C | 65% | 1016.1 hPa | 0 mm | - | 89 W/m² | - |
| 1777810694 | 10° C | 66% | 1016.2 hPa | 0 mm | - | 78 W/m² | - |
| 1777810390 | 10° C | 68% | 1016.3 hPa | 0 mm | - | 47 W/m² | - |
| 1777810086 | 8.89° C | 72% | 1016.3 hPa | 0 mm | - | 51 W/m² | - |
| 1777809784 | 8.33° C | 75% | 1016.4 hPa | 0 mm | - | 45 W/m² | - |
| 1777809481 | 7.78° C | 78% | 1016.3 hPa | 0 mm | - | 33 W/m² | - |
| 1777809179 | 7.22° C | 80% | 1016.3 hPa | 0 mm | - | 29 W/m² | - |
| 1777808876 | 6.67° C | 83% | 1016.3 hPa | 0 mm | - | 24 W/m² | - |
| 1777808573 | 6.11° C | 85% | 1016.2 hPa | 0 mm | - | 20 W/m² | - |
| 1777808270 | 6.11° C | 86% | 1016.3 hPa | 0 mm | - | 6 W/m² | - |
| 1777807969 | 5.56° C | 86% | 1016.2 hPa | 0 mm | - | 11 W/m² | - |
| 1777807661 | 5.56° C | 87% | 1016.1 hPa | 0 mm | - | 8 W/m² | - |
| 1777807358 | 5.56° C | 87% | 1016 hPa | 0 mm | - | 5 W/m² | - |
| 1777807054 | 5° C | 87% | 1016.2 hPa | 0 mm | - | 3 W/m² | - |
| 1777806751 | 5.56° C | 87% | 1016.1 hPa | 0 mm | - | 1 W/m² | - |
| 1777806447 | 5.56° C | 87% | 1016.1 hPa | 0 mm | - | 1 W/m² | - |
| 1777806144 | 5.56° C | 87% | 1016.2 hPa | 0 mm | - | 0 W/m² | - |
* Rain latest hour (hover to see other rain measurements)
** Current wind speed in m/s (hover to see current wind gust speed)